Temp
25 24 25 25 28 27 26 25 33 33 32 32 30 28 29 28 25 21 24 24 23 23 23 22 22 22 22 22 22 21 20 20 20 20 20 20 20 20 20 20 20 20 20 19 19 19 19 19 19
26 23 26 28 29 25 19 28 32 32 32 31 28 27 25 27 26 24 24 24 22 22 22 22 22 22 22 22 22 21 20 20 20 20 20 20 20 20 20 20 20 19 19 19 19 19 19 19 19
26 25 27 30 31 28 24 22 20 32 32 33 31 29 28 26 26 25 24 24 22 20 22 22 22 22 21 21 21 21 20 20 20 20 20 20 20 20 20 19 19 19 18 18 18 18 19 19 20
25 28 29 30 32 26 22 24 25 32 32 32 31 29 28 27 26 25 24 24 23 22 21 22 22 21 21 21 21 21 20 20 20 20 20 20 20 19 19 19 18 18 18 19 19 19 20 19 19
27 28 30 31 33 27 25 23 28 21 33 33 31 29 27 26 25 24 24 24 24 23 22 22 22 22 21 21 21 21 20 20 20 20 19 19 19 19 19 18 18 19 20 20 19 19 19 19 19
28 30 30 32 32 32 33 34 33 34 33 32 31 29 27 26 25 24 25 25 25 23 22 23 22 22 21 21 21 20 20 20 20 19 19 19 19 19 18 18 19 20 19 19 19 19 19 19 19
29 31 31 33 31 29 29 27 31 27 33 33 31 30 27 26 25 25 25 25 25 23 21 22 22 22 22 21 21 20 20 20 19 19 19 19 19 19 19 19 19 19 19 19 19 19 19 19 19
30 32 31 33 29 21 22 25 26 25 29 32 32 30 29 26 25 25 26 25 25 24 21 21 22 22 22 21 21 20 20 19 19 19 19 20 20 20 20 19 19 19 19 19 19 19 18 18 18
30 31 31 33 31 26 25 31 27 28 29 32 32 30 28 26 26 26 25 25 25 24 23 21 20 21 21 20 20 20 20 20 20 20 20 19 19 19 19 19 19 19 18 18 18 18 18 18 18
31 31 32 34 33 28 27 28 21 33 32 32 31 29 27 27 27 27 26 26 25 25 24 23 22 22 21 20 21 21 21 20 19 19 20 19 19 19 19 19 19 18 18 18 18 17 18 18 17
32 31 33 34 34 34 32 33 30 22 20 21 21 29 28 27 27 28 27 27 26 26 25 24 24 23 23 22 21 20 20 19 19 19 19 18 19 19 19 18 18 18 18 18 18 17 17 17 17
32 33 33 34 33 33 34 34 29 25 21 23 22 25 28 28 28 28 28 27 27 26 25 25 23 23 23 22 22 21 21 20 19 18 19 19 19 18 18 18 19 18 17 17 17 17 17 16 16
32 33 33 33 33 33 33 34 34 21 29 28 26 26 29 29 28 29 28 28 27 26 25 25 23 23 22 22 22 21 21 20 20 19 19 19 19 20 19 19 18 17 17 17 18 17 16 15 15
33 33 33 33 33 33 33 33 33 25 26 24 27 26 29 29 29 28 28 28 27 26 25 25 23 23 22 22 21 21 20 20 19 18 19 20 19 20 19 18 17 16 17 17 17 16 15 13 12
32 32 33 33 33 33 33 32 33 30 30 25 32 31 30 29 29 28 28 27 27 26 25 24 23 23 21 21 21 20 19 19 19 18 18 18 18 18 18 17 16 16 17 16 15 14 13 12 12
32 32 30 33 33 33 33 31 33 33 32 31 32 32 31 30 29 29 28 27 26 25 25 24 23 22 22 21 20 19 19 19 18 17 17 16 16 17 17 16 15 16 16 15 12 11 11 11 10
31 30 31 32 34 33 33 31 34 34 33 33 33 32 31 30 29 29 28 27 26 25 24 24 23 22 22 21 19 19 18 18 17 16 15 14 13 13 16 15 15 15 14 12 11 11 10 10 9
30 31 32 32 33 33 32 32 33 34 34 33 33 33 32 30 30 28 28 27 26 25 24 23 22 22 21 20 19 18 17 17 16 14 14 14 14 14 15 14 14 13 13 11 10 9 9 9 7
32 32 32 33 34 33 32 32 33 34 34 33 33 32 31 28 24 26 17 19 25 24 24 23 22 21 20 19 18 17 16 15 15 14 14 14 14 14 13 14 13 11 12 10 8 7 7 8 6
31 31 31 33 34 33 32 32 33 34 34 33 33 30 27 24 25 24 19 15 19 23 22 22 21 20 19 19 17 15 14 14 13 13 13 14 14 13 13 12 10 10 10 7 7 5 5 6 5
30 30 30 31 33 33 32 30 31 33 34 33 32 29 27 24 23 21 20 18 20 21 20 19 18 17 17 16 16 14 14 14 13 12 12 12 13 12 11 10 8 8 7 6 6 6 6 5 5
28 31 31 31 31 30 32 29 31 33 33 32 31 28 26 26 22 20 19 17 17 17 17 16 16 16 15 15 15 14 13 13 13 12 12 12 12 11 10 9 8 7 6 6 6 6 6 6 6
29 31 31 31 30 30 31 30 31 33 31 30 28 26 24 24 23 21 18 16 15 14 15 16 17 16 15 15 14 13 13 12 12 12 12 12 10 10 9 8 7 6 6 6 6 6 6 6 6
31 30 30 30 30 28 29 30 31 31 31 28 26 25 23 22 20 18 17 16 15 14 13 15 14 14 13 13 13 13 13 13 12 12 11 10 10 10 9 8 7 6 6 6 6 6 6 6 6
30 29 26 26 27 27 30 30 31 31 29 28 26 24 23 21 20 18 17 16 15 14 12 12 13 13 13 13 13 13 13 12 11 12 11 11 9 9 8 8 7 6 6 6 6 6 6 6 6
29 29 27 26 27 29 31 30 30 31 29 27 26 24 23 22 21 20 18 17 16 14 13 11 11 11 11 12 13 13 12 11 9 9 9 8 7 7 7 7 6 5 6 6 6 6 5 5 5
29 28 29 28 29 28 29 28 30 29 28 27 25 24 24 23 21 20 18 16 15 14 13 12 11 11 12 12 12 12 12 11 9 8 8 7 7 7 6 6 5 5 5 5 6 6 6 5 5
30 31 28 28 25 25 29 28 28 27 27 27 26 25 24 22 20 19 18 16 14 13 12 12 11 10 10 11 11 10 8 9 8 7 6 6 6 6 5 5 5 5 6 6 6 5 5 5 5
29 28 29 29 28 26 26 27 28 28 28 27 27 25 23 22 20 19 17 15 14 13 12 11 11 11 10 10 10 9 9 8 7 6 6 6 6 6 5 5 5 6 6 6 6 5 5 5 5
30 29 29 27 26 28 27 26 30 29 29 28 28 26 23 22 20 18 16 15 14 14 12 11 11 10 10 10 10 9 9 7 6 5 5 5 5 5 5 5 5 5 5 5 5 4 4 4 4
Height
1523 1523 1524 1526 1530 1524 1529 1523 1485 1492 1498 1500 1504 1507 1513 1518 1527 1545 1538 1541 1540 1542 1545 1547 1549 1552 1553 1555 1557 1559 1561 1563 1564 1565 1566 1567 1568 1569 1570 1570 1570 1570 1570 1570 1570 1570 1570 1569 1569
1523 1524 1528 1525 1523 1543 1558 1513 1495 1498 1498 1501 1506 1512 1516 1522 1526 1533 1539 1541 1540 1543 1546 1548 1550 1552 1554 1556 1557 1559 1562 1563 1565 1566 1568 1568 1569 1570 1570 1571 1570 1571 1571 1570 1570 1570 1570 1569 1569
1523 1524 1527 1514 1508 1525 1539 1535 1524 1502 1497 1496 1504 1510 1515 1525 1529 1534 1539 1542 1542 1545 1546 1549 1551 1554 1556 1557 1559 1560 1562 1564 1565 1567 1569 1569 1570 1571 1571 1571 1571 1571 1571 1571 1570 1570 1570 1569 1568
1526 1523 1522 1513 1502 1518 1527 1523 1516 1501 1498 1497 1502 1514 1520 1526 1529 1536 1539 1543 1545 1548 1547 1549 1552 1554 1556 1558 1559 1561 1563 1565 1566 1568 1569 1570 1570 1571 1571 1571 1572 1571 1571 1571 1570 1570 1569 1569 1568
1529 1524 1514 1505 1493 1510 1512 1498 1509 1518 1495 1497 1501 1515 1523 1529 1531 1536 1539 1542 1545 1546 1547 1550 1553 1555 1557 1558 1560 1562 1564 1565 1567 1568 1569 1570 1570 1571 1571 1572 1572 1572 1571 1571 1571 1570 1570 1569 1568
1527 1520 1517 1505 1495 1497 1487 1489 1492 1494 1498 1499 1503 1511 1522 1529 1532 1536 1539 1542 1545 1545 1548 1550 1552 1555 1557 1559 1561 1563 1565 1566 1567 1568 1569 1570 1571 1571 1572 1572 1572 1571 1571 1571 1571 1571 1570 1569 1568
1526 1517 1511 1497 1499 1499 1506 1498 1489 1503 1500 1501 1502 1510 1522 1526 1531 1535 1538 1542 1545 1546 1548 1550 1553 1555 1557 1559 1561 1563 1564 1566 1567 1568 1569 1570 1571 1571 1572 1572 1572 1572 1572 1571 1570 1569 1568 1567 1565
1523 1516 1512 1492 1504 1526 1525 1506 1504 1509 1509 1504 1504 1508 1517 1524 1530 1534 1538 1542 1545 1547 1549 1550 1553 1555 1558 1559 1561 1563 1565 1566 1568 1569 1570 1571 1571 1572 1572 1572 1573 1572 1571 1570 1569 1568 1566 1565 1563
1520 1518 1514 1494 1499 1511 1508 1496 1499 1497 1502 1504 1506 1510 1518 1524 1529 1534 1539 1542 1545 1549 1550 1553 1554 1555 1557 1559 1562 1563 1565 1566 1568 1569 1571 1571 1572 1572 1571 1572 1572 1571 1570 1569 1568 1566 1564 1562 1561
1516 1514 1503 1493 1493 1502 1499 1509 1516 1496 1503 1501 1506 1514 1520 1525 1528 1532 1537 1540 1544 1547 1550 1552 1555 1557 1559 1560 1562 1564 1565 1567 1568 1568 1571 1571 1573 1574 1574 1572 1571 1570 1569 1568 1566 1564 1562 1560 1557
1509 1508 1498 1495 1490 1490 1495 1490 1496 1512 1523 1522 1522 1513 1520 1523 1526 1529 1533 1537 1541 1545 1548 1551 1555 1557 1560 1560 1562 1563 1565 1566 1569 1569 1569 1570 1571 1572 1572 1571 1571 1568 1568 1565 1563 1561 1559 1555 1553
1506 1501 1499 1495 1493 1494 1491 1487 1493 1511 1515 1513 1527 1521 1520 1520 1525 1526 1530 1534 1537 1541 1546 1550 1553 1557 1560 1559 1562 1565 1566 1567 1567 1566 1567 1567 1569 1568 1568 1568 1567 1566 1564 1561 1559 1556 1553 1549 1546
1502 1499 1497 1494 1493 1496 1493 1489 1490 1504 1493 1502 1513 1516 1517 1520 1523 1524 1527 1530 1533 1538 1542 1546 1548 1553 1556 1558 1562 1564 1565 1566 1566 1565 1564 1565 1566 1565 1566 1564 1563 1561 1559 1556 1554 1551 1546 1543 1539
1499 1498 1497 1494 1492 1493 1495 1493 1493 1511 1510 1508 1504 1509 1512 1514 1520 1522 1524 1527 1529 1532 1537 1541 1543 1548 1553 1556 1559 1561 1563 1564 1565 1563 1561 1563 1563 1563 1562 1560 1559 1557 1554 1552 1549 1544 1539 1536 1534
1498 1498 1496 1495 1493 1492 1492 1493 1493 1493 1495 1504 1499 1503 1505 1510 1512 1517 1522 1526 1529 1531 1534 1538 1539 1544 1549 1553 1555 1558 1560 1561 1562 1559 1559 1560 1559 1558 1558 1556 1555 1552 1551 1548 1544 1539 1536 1530 1527
1500 1498 1505 1489 1489 1490 1493 1501 1489 1490 1493 1497 1496 1498 1501 1503 1507 1511 1520 1527 1531 1533 1535 1537 1540 1540 1544 1548 1551 1554 1556 1558 1557 1555 1553 1555 1555 1552 1553 1552 1549 1547 1545 1542 1539 1535 1531 1525 1520
1499 1509 1499 1487 1481 1486 1491 1498 1484 1483 1487 1490 1492 1495 1496 1501 1506 1505 1509 1516 1527 1531 1530 1535 1540 1538 1540 1544 1548 1551 1553 1554 1554 1553 1553 1551 1553 1550 1550 1548 1545 1542 1539 1535 1532 1530 1526 1521 1515
1500 1496 1489 1485 1480 1483 1489 1491 1484 1478 1483 1486 1489 1491 1492 1495 1501 1491 1495 1509 1523 1529 1531 1533 1538 1540 1538 1539 1544 1548 1549 1550 1550 1548 1549 1548 1548 1547 1546 1545 1541 1537 1533 1531 1527 1524 1521 1518 1512
1484 1486 1483 1474 1469 1480 1486 1486 1483 1480 1482 1485 1487 1491 1495 1494 1499 1499 1496 1494 1521 1531 1531 1532 1533 1537 1537 1537 1542 1543 1544 1549 1548 1549 1546 1547 1546 1544 1543 1540 1536 1533 1530 1527 1524 1521 1516 1514 1510
1488 1492 1489 1474 1468 1478 1484 1487 1479 1477 1480 1482 1487 1494 1501 1501 1497 1491 1519 1506 1512 1522 1525 1529 1531 1531 1531 1534 1536 1541 1543 1545 1546 1544 1544 1543 1543 1541 1539 1536 1532 1529 1527 1525 1522 1519 1515 1513 1510
1495 1498 1494 1490 1475 1476 1487 1496 1487 1478 1479 1482 1487 1494 1502 1506 1504 1509 1517 1537 1523 1523 1523 1523 1525 1526 1527 1532 1537 1540 1542 1543 1544 1542 1542 1541 1539 1538 1534 1532 1529 1527 1526 1523 1521 1518 1515 1512 1509
1503 1488 1489 1488 1489 1499 1478 1509 1481 1474 1474 1480 1488 1496 1507 1509 1511 1516 1525 1525 1519 1520 1521 1524 1524 1524 1527 1532 1536 1539 1541 1541 1542 1540 1539 1539 1536 1534 1533 1530 1528 1525 1523 1521 1519 1517 1514 1511 1508
1495 1484 1484 1485 1491 1491 1486 1493 1476 1462 1476 1482 1492 1502 1510 1514 1515 1520 1521 1521 1522 1522 1520 1520 1520 1524 1529 1531 1534 1538 1540 1541 1540 1539 1538 1537 1535 1533 1531 1528 1526 1523 1521 1519 1517 1515 1512 1509 1506
1484 1486 1489 1486 1491 1509 1492 1492 1481 1472 1472 1483 1497 1506 1512 1514 1515 1517 1520 1520 1521 1522 1519 1520 1523 1527 1530 1533 1535 1537 1538 1538 1538 1537 1536 1534 1535 1533 1530 1526 1525 1522 1519 1517 1515 1512 1510 1507 1504
1484 1492 1516 1519 1512 1511 1479 1487 1477 1464 1471 1483 1496 1506 1511 1514 1515 1517 1520 1522 1524 1524 1524 1525 1527 1529 1531 1533 1535 1536 1537 1536 1536 1535 1533 1532 1531 1531 1527 1523 1521 1520 1517 1514 1512 1510 1507 1505 1501
1482 1488 1505 1520 1507 1493 1470 1484 1471 1466 1475 1484 1494 1501 1509 1514 1516 1520 1523 1526 1528 1529 1530 1530 1531 1532 1533 1533 1534 1535 1536 1535 1534 1532 1530 1530 1529 1527 1524 1520 1518 1516 1515 1512 1510 1507 1505 1502 1499
1478 1491 1480 1491 1480 1490 1482 1475 1473 1478 1483 1488 1495 1501 1505 1511 1517 1522 1526 1528 1530 1531 1533 1534 1534 1533 1533 1534 1533 1534 1534 1533 1532 1531 1529 1527 1525 1522 1520 1517 1515 1514 1512 1510 1507 1505 1502 1499 1496
1467 1468 1490 1486 1512 1515 1480 1478 1483 1479 1486 1489 1497 1501 1504 1510 1517 1522 1525 1528 1530 1532 1533 1535 1535 1534 1534 1534 1534 1534 1533 1531 1531 1529 1528 1526 1523 1520 1518 1516 1514 1511 1509 1507 1504 1501 1499 1496 1492
1473 1477 1472 1474 1480 1502 1503 1490 1469 1475 1480 1484 1489 1498 1506 1511 1516 1521 1524 1527 1529 1531 1533 1533 1534 1534 1533 1533 1533 1532 1531 1530 1529 1528 1526 1524 1521 1519 1517 1515 1513 1511 1508 1506 1502 1499 1496 1492 1489
1458 1465 1469 1485 1492 1479 1483 1489 1464 1467 1471 1478 1483 1488 1500 1508 1515 1520 1524 1526 1529 1532 1533 1534 1534 1534 1533 1532 1531 1530 1529 1528 1528 1527 1525 1523 1520 1518 1516 1513 1511 1509 1505 1502 1498 1495 1491 1488 1484
Wind_Speed
12 9 13 10 6 6 10 11 16 14 14 16 26 21 21 17 7 4 17 13 11 12 13 13 13 12 12 11 11 10 8 7 6 4 3 3 3 3 4 5 5 6 6 6 6 6 6 6 7
11 9 12 11 8 6 4 11 18 12 15 13 26 21 8 16 14 21 19 16 14 13 14 13 12 12 11 11 11 10 8 6 5 3 2 1 1 2 3 4 5 5 6 6 7 7 7 8 8
11 5 10 7 14 5 3 15 28 10 8 15 21 19 9 14 16 17 18 19 14 14 12 12 11 11 10 10 10 10 8 6 4 2 1 0 1 1 2 3 4 5 5 5 6 7 8 9 9
9 12 12 9 11 9 10 14 42 10 8 13 24 16 23 16 16 18 20 17 14 15 9 12 10 9 9 9 9 8 7 5 3 3 2 1 0 1 2 3 3 4 5 6 7 7 8 9 10
12 13 11 17 13 23 19 38 21 9 15 12 24 21 20 15 18 21 19 15 16 18 8 10 10 9 9 8 7 6 5 4 3 3 2 1 1 1 1 1 3 4 4 5 6 7 8 10 12
15 20 15 17 7 13 4 12 12 10 17 17 20 23 19 15 18 18 16 15 15 13 9 11 10 10 9 8 8 7 6 5 4 3 2 2 1 1 1 2 2 2 4 5 7 10 12 14 16
15 12 18 23 2 5 16 44 24 16 12 10 16 20 17 16 15 16 15 14 15 11 10 10 11 10 10 9 9 8 7 5 4 3 3 2 1 1 1 1 2 5 8 10 12 15 17 20 22
20 14 22 23 14 8 15 49 16 28 7 8 7 10 18 20 17 15 16 14 13 13 8 10 11 10 10 9 9 8 6 5 4 3 2 1 1 3 5 5 6 10 13 15 17 18 19 22 22
20 13 15 23 4 10 25 9 41 41 20 10 14 24 25 20 17 17 12 13 13 13 10 10 10 8 7 5 7 6 5 4 3 2 7 9 4 9 8 6 13 14 16 19 16 17 20 23 21
22 13 23 11 2 18 4 18 38 7 14 16 20 25 22 20 16 16 14 15 13 12 12 15 13 7 10 9 2 4 5 5 5 5 4 6 1 5 5 13 14 12 14 18 16 17 20 20 20
22 17 21 17 4 12 21 19 15 37 16 21 23 25 22 19 15 15 15 16 14 12 12 15 13 11 15 12 5 4 3 5 6 11 9 6 5 3 4 6 9 11 12 14 19 22 20 25 29
21 24 25 26 8 8 14 15 16 26 30 28 32 22 21 18 13 14 14 14 14 13 12 15 15 16 6 12 4 11 7 10 6 10 6 8 6 9 12 9 12 13 13 18 23 27 32 36 36
19 22 25 19 12 10 18 15 11 36 15 18 37 16 18 15 12 12 12 13 17 16 15 17 17 19 13 12 12 9 11 7 13 12 16 12 10 13 12 15 16 16 19 23 31 35 37 35 34
19 21 20 27 14 13 15 17 14 28 14 24 34 28 19 18 14 13 13 15 16 19 19 19 19 18 24 18 12 16 14 11 11 12 21 13 12 13 15 15 15 17 23 30 34 34 31 30 27
17 14 13 22 14 18 16 14 16 14 32 49 15 14 22 19 20 18 18 17 19 20 21 20 17 15 16 21 19 15 10 11 9 19 21 16 13 15 14 14 14 19 26 33 32 29 28 25 29
13 13 15 17 19 20 16 16 18 17 8 16 16 17 18 22 23 24 19 20 19 19 19 22 17 16 15 16 15 11 14 14 16 17 21 14 13 16 15 15 18 25 31 31 26 23 25 29 28
14 13 19 20 21 11 11 16 21 20 13 11 9 18 20 19 22 28 27 25 24 22 23 19 20 15 15 16 15 14 15 17 15 15 11 14 8 14 16 18 23 28 28 23 23 27 29 31 27
16 18 13 15 13 11 15 14 19 4 13 16 15 12 15 25 26 17 29 28 24 24 21 19 19 21 12 14 17 12 19 16 15 15 18 18 17 18 20 19 25 27 24 23 25 25 27 23 19
21 15 12 15 12 12 14 10 14 15 14 10 14 17 14 16 6 6 34 20 19 22 24 18 16 18 12 14 12 16 17 12 19 16 21 23 21 19 23 24 23 23 24 22 20 25 21 19 17
17 11 16 15 6 8 8 12 14 11 11 12 10 16 19 19 15 16 12 24 15 20 21 20 15 17 20 18 17 15 12 11 13 16 19 20 19 22 21 22 20 22 23 15 20 17 17 19 17
11 13 15 16 13 9 7 13 17 19 16 4 1 10 16 13 14 20 18 5 11 15 15 14 15 11 13 8 8 6 10 12 13 17 19 18 20 20 18 18 18 20 16 16 17 18 19 20 19
14 16 15 16 15 12 16 13 16 19 14 10 6 9 12 13 24 22 13 10 9 4 6 6 4 5 7 8 7 6 6 11 12 10 15 19 19 18 17 17 16 16 17 14 15 15 17 19 19
16 15 13 16 15 15 19 11 12 11 16 13 15 9 6 11 17 17 12 11 11 9 1 3 3 5 6 5 8 6 9 2 9 13 13 13 15 16 13 15 19 15 17 16 12 14 16 16 18
15 11 13 8 11 13 17 16 16 11 14 15 16 11 9 10 13 15 14 13 13 12 6 9 7 5 4 4 5 10 9 10 10 12 8 12 5 10 12 19 21 18 18 16 16 16 16 15 18
15 10 8 11 11 13 17 17 14 12 22 21 20 17 14 13 13 13 13 12 12 10 8 9 8 8 6 3 3 5 5 6 6 11 10 11 10 9 14 19 18 16 18 15 17 19 18 18 18
17 15 11 11 11 8 14 15 9 15 23 27 24 21 18 16 15 14 13 12 11 11 10 8 8 7 4 2 1 2 3 4 3 10 11 8 12 11 17 18 19 15 14 18 16 18 16 20 23
17 15 19 17 17 13 4 9 11 14 14 23 24 22 22 18 17 16 15 13 12 11 10 10 9 6 2 2 4 6 7 6 8 10 11 10 13 15 15 16 14 15 15 17 17 19 20 22 23
20 16 14 10 12 14 12 14 10 18 16 16 19 21 21 21 18 17 15 15 12 12 11 9 6 5 3 1 2 3 7 10 8 9 10 13 14 15 15 15 16 16 14 17 20 17 23 23 20
13 16 15 10 10 10 10 3 11 12 11 14 20 24 19 20 19 18 16 14 13 11 9 7 5 3 1 2 3 6 7 7 9 7 11 15 15 15 15 16 15 15 15 16 20 21 18 21 21
19 19 19 9 13 10 9 2 1 14 15 22 20 29 25 20 18 16 15 14 13 12 9 9 8 4 4 4 6 7 7 6 8 10 10 13 14 15 14 13 13 14 16 19 18 19 22 25 19
Wind_Direction
311 347 359 291 255 58 356 310 82 103 97 86 63 49 77 55 119 165 152 135 145 157 138 134 131 128 127 127 132 134 138 137 136 134 123 90 60 47 38 37 33 28 24 20 15 8 2 357 351
319 296 276 278 255 111 275 298 80 77 95 106 90 85 40 76 91 129 142 140 153 146 145 139 135 133 131 131 132 137 144 151 159 157 162 100 37 24 33 27 23 15 9 8 6 360 354 350 344
313 309 277 228 239 102 204 84 273 107 140 116 100 75 101 106 121 134 141 142 136 136 149 142 140 140 140 141 144 146 154 165 172 175 194 50 10 11 16 16 9 10 11 4 354 344 339 338 339
307 287 245 244 266 95 125 236 246 153 94 92 107 89 83 111 127 137 139 145 140 141 165 151 152 148 150 151 151 150 155 161 170 188 203 210 246 359 0 7 10 8 352 342 348 354 356 354 348
278 279 268 262 277 152 161 227 167 227 125 100 104 102 101 103 120 134 141 143 145 149 169 162 158 159 159 157 153 154 157 169 175 194 203 203 233 290 357 355 339 338 359 6 1 353 346 339 334
277 263 281 275 57 307 182 174 115 105 85 115 110 107 106 123 130 139 141 141 144 160 203 165 160 164 163 161 159 165 171 178 181 195 207 228 243 233 220 308 337 0 352 349 347 343 338 333 328
258 284 285 291 157 29 327 304 88 6 129 104 129 111 124 136 140 142 145 143 143 146 176 163 163 166 164 165 169 175 179 180 187 198 205 207 210 198 327 340 343 346 345 340 336 335 334 330 326
257 274 286 279 125 165 203 256 115 126 325 92 144 141 144 134 142 146 143 151 153 154 163 165 165 167 167 170 176 178 180 182 181 175 163 81 93 44 33 327 357 339 338 330 332 331 328 330 332
263 271 269 278 127 183 228 226 304 159 151 157 84 109 122 135 142 148 146 157 151 163 153 167 171 171 142 183 177 181 179 164 155 125 98 60 55 13 342 333 345 345 345 344 345 330 328 336 336
249 254 260 336 252 142 117 194 215 153 137 139 112 120 127 139 146 152 159 164 160 172 161 168 173 177 162 189 208 205 162 138 86 49 110 6 80 225 229 319 341 332 339 337 339 323 330 327 314
244 248 272 289 311 338 194 215 92 271 40 20 328 142 146 147 156 157 165 165 170 170 169 167 170 159 173 197 233 92 48 126 168 210 191 201 187 265 264 280 324 307 323 318 295 311 305 293 296
256 256 267 276 59 296 289 307 169 157 110 78 259 258 155 155 159 161 167 168 166 156 168 171 173 179 144 185 152 171 188 196 246 221 221 237 177 242 259 269 285 304 294 300 303 306 310 306 303
246 264 265 274 282 272 294 298 301 138 132 173 197 224 151 172 168 164 164 164 157 151 163 174 183 193 196 148 165 168 200 194 215 243 263 252 244 263 281 300 307 299 307 305 313 312 309 307 306
249 244 267 268 269 247 259 276 279 106 19 270 192 204 169 174 180 170 175 168 162 163 166 179 183 200 194 180 180 200 177 210 208 230 259 277 264 287 290 299 299 306 306 317 312 311 310 308 310
267 271 278 251 259 259 258 258 263 174 203 220 160 171 169 178 185 187 184 182 177 168 170 177 188 213 205 201 205 200 220 227 216 242 262 267 268 282 289 298 303 298 309 313 311 309 310 301 297
262 255 259 245 230 251 244 259 247 230 201 194 199 186 190 188 194 186 188 186 187 180 182 183 186 215 221 224 227 221 220 214 221 240 269 269 285 282 291 300 299 305 311 312 314 315 294 303 309
234 243 236 257 200 221 205 257 265 232 211 213 243 227 196 203 200 195 181 184 192 190 191 193 189 214 232 231 225 219 227 217 224 229 251 269 270 281 297 305 306 308 311 314 306 303 304 311 312
234 217 252 251 169 192 220 232 264 247 190 217 221 264 240 195 214 231 175 179 185 193 192 199 205 201 220 230 212 211 231 227 222 222 232 264 273 284 298 304 305 311 317 316 317 309 311 316 317
271 303 268 250 180 178 243 229 256 254 218 244 247 241 347 61 72 59 7 64 159 197 184 179 191 204 195 217 213 207 224 221 241 249 266 282 282 295 302 306 315 311 319 324 310 310 323 333 350
258 279 283 294 192 165 237 274 268 251 269 195 238 43 43 60 80 167 234 231 143 138 163 182 190 186 194 217 210 221 243 241 248 251 277 283 294 300 308 315 323 319 328 328 315 337 341 338 345
267 266 261 275 281 172 212 263 274 262 237 191 25 27 46 73 90 124 141 154 153 184 203 217 222 212 206 229 252 255 275 248 245 268 274 296 304 311 317 320 322 330 334 323 337 338 335 338 339
241 245 256 268 264 265 200 247 238 239 201 205 129 71 35 77 115 120 132 109 107 111 225 222 215 225 195 200 238 258 234 247 257 246 281 301 318 330 332 316 331 323 330 323 331 329 328 329 335
256 260 284 232 262 271 271 271 259 272 164 165 103 86 65 79 101 109 107 103 101 105 151 151 187 213 220 224 215 188 224 293 289 279 295 335 343 342 334 301 322 312 330 331 321 323 326 326 334
249 242 264 286 255 251 250 266 264 177 178 123 112 123 129 108 101 101 101 98 97 99 88 100 111 141 175 212 219 233 262 252 253 288 323 279 298 267 294 296 314 309 321 318 327 321 314 318 324
227 224 241 233 233 242 238 235 253 108 130 135 142 147 140 130 118 113 112 111 110 105 92 89 99 109 119 150 210 250 279 303 304 310 304 317 316 313 288 294 304 304 323 322 319 326 326 322 322
211 225 238 235 223 253 253 233 208 125 116 136 146 148 145 146 135 135 134 130 128 125 129 125 110 109 127 146 318 311 291 294 291 306 325 354 303 301 291 295 305 318 314 314 312 311 313 323 320
197 218 245 267 286 288 235 76 115 123 138 139 145 153 151 144 142 144 142 140 136 133 130 133 142 147 120 34 1 348 343 339 326 328 332 304 310 310 309 327 329 313 312 308 315 311 320 319 316
250 214 221 238 259 275 254 185 223 162 156 156 157 156 149 146 150 149 148 144 141 140 138 136 140 127 132 34 344 359 326 323 323 333 337 326 325 336 337 336 331 329 330 319 321 322 325 322 316
216 243 254 237 236 237 273 155 93 136 179 170 168 155 155 158 154 154 150 146 147 140 145 147 141 95 12 66 301 320 319 312 329 319 323 336 343 351 347 344 333 329 331 320 313 318 314 303 313
236 218 232 242 239 260 278 187 263 188 188 179 192 158 157 161 156 157 153 150 148 151 151 159 163 169 223 301 308 318 326 338 324 341 337 336 343 346 336 331 329 329 325 323 315 304 302 316 308